Torna al catalogo

STARLINK-31061

AttivoComunicazioniVLEO
NORAD 58611·PAYLOAD·🇺🇸 United States

Lanciato Dec 19, 2023 da Cape Canaveral Space Force Station

Loading…

Prossimi Passaggi (prossime 24 ore)

TLE

AggiornatoSource: CelesTrak SupGP

Epoca: Sep 15, 2026, 02:55 UTC

1 58611C 23200Y   26258.12201389  .00037113  00000+0  13440-2 0  2583
2 58611  42.9995 179.1800 0001386 272.9383 326.9206 15.27564606    10

Traccia STARLINK-31061 in tempo reale con AllMySat

Download on the App Store